Location: UBC Liquid-Mirror Observatory
(49.2876°N, 122.5728°W)
Time: 02:49:57
(UTC-07:00)

KITSAT 1 - Visible Passes

Search period start: 01 August 2014 00:00
Search period end: 11 August 2014 00:00
Orbit: 1310 x 1321 km, 66.1° (Epoch: 30 July)

Date Brightness Start Highest point End Pass type
(mag) Time Alt. Az. Time Alt. Az. Time Alt. Az.
03 Aug 12.6 03:51:00 10° ESE 03:52:53 11° E 03:54:47 10° E visible
04 Aug 12.3 04:03:25 10° SE 04:08:21 18° E 04:13:17 10° ENE visible
05 Aug 11.9 04:17:36 10° SSE 04:23:57 26° ESE 04:30:18 10° NE visible
06 Aug 11.4 04:32:26 10° S 04:39:39 37° ESE 04:46:53 10° NE visible
07 Aug 12.5 03:00:38 10° ESE 03:01:59 11° E 03:03:21 10° E visible
07 Aug 10.9 04:47:44 10° S 04:55:29 52° ESE 05:03:15 10° NE visible
08 Aug 12.2 03:12:39 10° SE 03:17:27 17° E 03:22:14 10° ENE visible
08 Aug 10.5 05:03:24 10° SSW 05:11:26 71° ESE 05:19:30 10° NE visible
09 Aug 11.8 03:26:45 10° SSE 03:33:02 26° ESE 03:39:18 10° NE visible
10 Aug 11.3 03:41:45 11° S 03:48:44 36° ESE 03:55:54 10° NE visible
